Home > Weather > Phuket > Past weeks

Flag for Thailand Weather for the Past 2 Weeks in Phuket, Thailand

Now
93 °F

Partly sunny.


Feels Like: 107 °F
Forecast: 81 / 92 °F
Wind: 13 mph from West

Location: Phuket Airport

Current Time: May 4, 2016 at 4:08:46 PM

Latest Report: May 4, 2016 at 3:00 PM


Visibility: N/A

Pressure: 29.77 "Hg

Humidity: 59%

Dew Point: 77 °F

Location of PhuketLocation

Historic Weather in Phuket — Graph

°F

Phuket Temperature Yesterday

Maximum temperature yesterday: 93 °F (at 10:30 AM)
Minimum temperature yesterday: 79 °F (at 6:30 AM)
Average temperature yesterday: 87 °F

High & Low Weather Summary for the Past Weeks

 TemperatureHumidityPressure
High97 °F (Apr 20, 2:00 PM)89% (Apr 21, 2:00 AM)29.92 "Hg (Apr 21, 2:00 AM)
Low66 °F (Apr 24, 3:30 AM)32% (Apr 24, 3:30 AM)29.74 "Hg (Apr 23, 5:30 PM)
Average87 °F70%29.83 "Hg
* Reported Apr 19 3:00 PM — May 4 3:00 PM, Phuket, Weather by CustomWeather, © 2016

Note: Actual official high and low records may vary slightly from our data, if they occured in-between our weather recording intervals... More about our weather records

Advertising

Phuket Weather History for the Previous 24 Hours

Scroll right to see more
 ConditionsComfort  
Time TempWeatherWind HumidityBarometerVisibility
3:00 PM
Wed, May 4
93 °FPartly sunny.13 mph59%29.77 "HgN/A
2:30 PM91 °FBroken clouds.14 mph59%29.77 "HgN/A
2:00 PM91 °FBroken clouds.13 mph63%29.80 "HgN/A
1:00 PM93 °FBroken clouds.6 mph56%29.83 "HgN/A
12:30 PM91 °FBroken clouds.3 mph59%29.86 "HgN/A
12:00 PM91 °FBroken clouds.7 mph59%29.86 "HgN/A
11:30 AM91 °FBroken clouds.5 mph59%29.86 "HgN/A
11:00 AM91 °FBroken clouds.6 mph63%29.86 "HgN/A
10:30 AM90 °FBroken clouds.7 mph67%29.86 "HgN/A
10:00 AM88 °FBroken clouds.7 mph70%29.86 "HgN/A
9:30 AM88 °FBroken clouds.3 mph70%29.86 "HgN/A
9:00 AM88 °FBroken clouds.3 mph75%29.86 "HgN/A
8:30 AM86 °FBroken clouds.2 mph75%29.83 "HgN/A
8:00 AM84 °FPartly sunny.9 mph79%29.83 "HgN/A
7:30 AM84 °FPartly sunny.7 mph79%29.80 "HgN/A
7:00 AM82 °FPartly sunny.6 mph84%29.80 "HgN/A
6:30 AM81 °FPartly sunny.6 mph89%29.77 "HgN/A
6:00 AM81 °FPassing clouds.7 mph84%29.77 "HgN/A
5:00 AM81 °FPassing clouds.No wind89%29.74 "Hg5 mi
4:00 AM82 °FPassing clouds.9 mph84%29.77 "Hg5 mi
3:30 AM82 °FPassing clouds.No wind84%29.77 "Hg5 mi
3:00 AM81 °FPassing clouds.No wind89%29.80 "Hg5 mi
2:30 AM82 °FPassing clouds.No wind84%29.80 "Hg5 mi
2:00 AM82 °FPassing clouds.No wind84%29.83 "HgN/A
1:30 AM82 °FPassing clouds.No wind84%29.80 "HgN/A
1:00 AM82 °FPassing clouds.No wind84%29.83 "HgN/A
12:30 AM82 °FPassing clouds.No wind84%29.83 "HgN/A
12:00 AM82 °FPassing clouds.No wind84%29.83 "HgN/A
11:30 PM
Tue, May 3
82 °FPassing clouds.No wind84%29.86 "HgN/A
11:00 PM82 °FPassing clouds.No wind84%29.86 "HgN/A
10:30 PM82 °FPassing clouds.No wind84%29.86 "HgN/A
10:00 PM84 °FPassing clouds.6 mph79%29.86 "HgN/A
9:30 PM86 °FPassing clouds.7 mph75%29.83 "HgN/A
9:00 PM86 °FPassing clouds.8 mph75%29.83 "HgN/A
8:30 PM86 °FPassing clouds.7 mph75%29.80 "HgN/A
8:00 PM86 °FPassing clouds.7 mph75%29.80 "HgN/A
7:30 PM88 °FPassing clouds.8 mph70%29.80 "HgN/A
6:00 PM88 °FPartly sunny.10 mph70%29.77 "HgN/A
5:30 PM90 °FPartly sunny.12 mph63%29.77 "HgN/A
5:00 PM91 °FPartly sunny.14 mph59%29.77 "HgN/A
4:30 PM91 °FPartly sunny.13 mph59%29.77 "HgN/A
4:00 PM91 °FPartly sunny.12 mph59%29.77 "HgN/A
Weather by CustomWeather, © 2016

See weather overviewHow to use our weather pages